sat.trackr.live / text

‹ back to catalog

SATELIOT_2

NORAD 60534 · 2024-149BU

PAYLOAD ACTIVE UNKNOWN

§ Identity

Operator
Country
SPN
Launch date
2024-08-16
Launch site
AFWTR
Launch vehicle
Mass (kg)
RCS (m²)

External: N2YO · Heavens-Above · Gunter

§ Orbital elements

Epoch: 2026-05-25T03:44:35.288736Z

Period
96.24 min
Inclination
97.6831°
Eccentricity
0.0001913
Mean motion
14.96260389 rev/d
Perigee alt
577.1 km
Apogee alt
579.8 km
Semi-major
6,956.6 km
B*
1.8988e-4
RAAN
220.5328°
Arg perigee
110.4024°
Mean anomaly
249.7403°
Rev number
9,652

§ Raw data

SATELIOT_21 60534U 24149BU  26145.15596399  .00002087  00000+0  18988-3 0  99962 60534  97.6831 220.5328 0001913 110.4024 249.7403 14.96260389 96521

JSON: /api/v1/satellites/60534 · /tle

For live sub-satellite position, see the globe view (requires WebGL).

§ Visibility from observer

Set your observer location to see the next 7 days of passes ≥ 10°. The values pass through the URL so the page stays shareable.

No JS? Fill the form by hand. The geolocation button needs JavaScript.